• In Latvia
  • List of Countries
  • For 7 days
  • Water Temperature
  • Satellite Maps
  • Weather Map
  • Weather Widgets
  • user-avatar
    Login

    Hourly Weather Latina

    Today, 19 February, Monday

    Time Temperature Precipitation Wind Pressure Humidity
    00:00 +10°C° 0.1 mm 1 mps 757 mmHg 91%
    01:00 +9°C° 0 mm 2 mps 757 mmHg 90%
    02:00 +9°C° 0.1 mm 2 mps 757 mmHg 90%
    03:00 +10°C° 0.1 mm 1 mps 757 mmHg 89%
    04:00 +9°C° 0.1 mm 1 mps 757 mmHg 89%
    05:00 +8°C° 0.1 mm 2 mps 757 mmHg 88%
    06:00 +8°C° 0.1 mm 2 mps 757 mmHg 88%
    07:00 +8°C° 0.1 mm 2 mps 757 mmHg 87%
    08:00 +9°C° 0.1 mm 2 mps 757 mmHg 84%
    09:00 +10°C° 0.1 mm 2 mps 757 mmHg 80%
    10:00 +12°C° 0.1 mm 2 mps 756 mmHg 76%
    11:00 +13°C° 0.2 mm 2 mps 756 mmHg 75%
    12:00 +13°C° 0.2 mm 2 mps 756 mmHg 75%
    13:00 +14°C° 0.2 mm 2 mps 756 mmHg 74%
    14:00 +13°C° 0.3 mm 2 mps 756 mmHg 76%
    15:00 +13°C° 0.3 mm 2 mps 756 mmHg 78%
    16:00 +12°C° 0.3 mm 2 mps 755 mmHg 80%
    17:00 +12°C° 0.2 mm 2 mps 755 mmHg 82%
    18:00 +11°C° 0.2 mm 1 mps 755 mmHg 84%
    19:00 +11°C° 0.2 mm 1 mps 755 mmHg 86%
    20:00 +11°C° 0.4 mm 1 mps 755 mmHg 86%
    21:00 +10°C° 0.4 mm 1 mps 755 mmHg 86%
    22:00 +10°C° 0.4 mm 1 mps 755 mmHg 86%
    23:00 +9°C° 0.4 mm 2 mps 755 mmHg 86%

    Tomorrow, 20 February, Tuesday

    Time Temperature Precipitation Wind Pressure Humidity
    00:00 +9°C° 0.4 mm 2 mps 755 mmHg 87%
    01:00 +8°C° 0.4 mm 2 mps 755 mmHg 87%
    02:00 +8°C° 0.2 mm 2 mps 755 mmHg 87%
    03:00 +8°C° 0.2 mm 2 mps 754 mmHg 88%
    04:00 +8°C° 0.2 mm 2 mps 754 mmHg 88%
    05:00 +8°C° 0 mm 2 mps 754 mmHg 88%
    06:00 +7°C° 0 mm 2 mps 754 mmHg 87%
    07:00 +7°C° 0 mm 2 mps 754 mmHg 87%
    08:00 +8°C° 0 mm 2 mps 754 mmHg 84%
    09:00 +9°C° 0 mm 2 mps 754 mmHg 80%
    10:00 +10°C° 0 mm 2 mps 754 mmHg 77%
    11:00 +10°C° 0.1 mm 2 mps 754 mmHg 74%
    12:00 +12°C° 0.1 mm 2 mps 753 mmHg 71%
    13:00 +11°C° 0.1 mm 3 mps 753 mmHg 68%
    14:00 +11°C° 0.1 mm 3 mps 753 mmHg 68%
    15:00 +11°C° 0.1 mm 3 mps 752 mmHg 67%
    16:00 +11°C° 0.1 mm 3 mps 752 mmHg 67%
    17:00 +10°C° 0 mm 2 mps 752 mmHg 71%
    18:00 +9°C° 0 mm 2 mps 752 mmHg 74%
    19:00 +9°C° 0 mm 1 mps 752 mmHg 78%
    20:00 +8°C° 0 mm 1 mps 752 mmHg 79%
    21:00 +8°C° 0 mm 1 mps 752 mmHg 80%
    22:00 +8°C° 0 mm 1 mps 752 mmHg 81%
    23:00 +8°C° 0 mm 1 mps 752 mmHg 82%

    Day after tomorrow, 21 February, Wednesday

    Time Temperature Precipitation Wind Pressure Humidity
    00:00 +8°C° 0 mm 1 mps 752 mmHg 83%
    01:00 +7°C° 0 mm 1 mps 752 mmHg 84%
    02:00 +6°C° 0 mm 2 mps 751 mmHg 84%
    03:00 +6°C° 0 mm 2 mps 751 mmHg 84%
    04:00 +6°C° 0 mm 2 mps 751 mmHg 84%
    05:00 +6°C° 0 mm 2 mps 750 mmHg 83%
    06:00 +5°C° 0 mm 2 mps 750 mmHg 83%
    07:00 +5°C° 0 mm 2 mps 750 mmHg 82%
    08:00 +7°C° 0 mm 2 mps 750 mmHg 75%
    09:00 +8°C° 0 mm 2 mps 750 mmHg 69%
    10:00 +10°C° 0 mm 2 mps 750 mmHg 62%
    11:00 +12°C° 0 mm 2 mps 750 mmHg 58%
    12:00 +13°C° 0 mm 2 mps 750 mmHg 54%
    13:00 +14°C° 0 mm 1 mps 749 mmHg 50%
    14:00 +14°C° 0.1 mm 2 mps 749 mmHg 52%
    15:00 +13°C° 0.1 mm 2 mps 749 mmHg 55%
    16:00 +13°C° 0.1 mm 2 mps 749 mmHg 57%
    17:00 +12°C° 0 mm 2 mps 749 mmHg 61%
    18:00 +10°C° 0 mm 2 mps 749 mmHg 66%
    19:00 +9°C° 0 mm 2 mps 749 mmHg 70%
    20:00 +8°C° 0 mm 2 mps 749 mmHg 72%
    21:00 +9°C° 0 mm 1 mps 749 mmHg 73%
    22:00 +9°C° 0 mm 1 mps 749 mmHg 74%
    23:00 +8°C° 0.1 mm 1 mps 749 mmHg 75%

    22 February, Thursday

    Time Temperature Precipitation Wind Pressure Humidity
    00:00 +8°C° 0.1 mm 1 mps 749 mmHg 76%
    01:00 +8°C° 0.1 mm 1 mps 749 mmHg 77%
    02:00 +8°C° 0.6 mm 1 mps 748 mmHg 80%
    03:00 +8°C° 0.6 mm 1 mps 748 mmHg 83%
    04:00 +8°C° 0.6 mm 1 mps 748 mmHg 86%
    05:00 +7°C° 0.5 mm 2 mps 748 mmHg 87%
    06:00 +7°C° 0.5 mm 2 mps 748 mmHg 88%
    07:00 +6°C° 0.5 mm 2 mps 748 mmHg 88%
    08:00 +7°C° 0.2 mm 3 mps 748 mmHg 84%
    09:00 +8°C° 0.2 mm 3 mps 748 mmHg 80%
    10:00 +8°C° 0.2 mm 4 mps 748 mmHg 76%
    11:00 +10°C° 0.2 mm 4 mps 748 mmHg 74%
    12:00 +10°C° 0.2 mm 4 mps 748 mmHg 72%
    13:00 +10°C° 0.2 mm 4 mps 748 mmHg 70%
    14:00 +10°C° 0.5 mm 4 mps 748 mmHg 73%
    15:00 +8°C° 0.5 mm 4 mps 748 mmHg 76%
    16:00 +8°C° 0.5 mm 4 mps 748 mmHg 79%
    17:00 +8°C° 0.4 mm 3 mps 749 mmHg 81%
    18:00 +8°C° 0.4 mm 3 mps 749 mmHg 83%
    19:00 +8°C° 0.4 mm 3 mps 749 mmHg 84%
    20:00 +7°C° 0.4 mm 3 mps 749 mmHg 84%
    21:00 +7°C° 0.4 mm 3 mps 750 mmHg 84%
    22:00 +7°C° 0.4 mm 3 mps 750 mmHg 84%
    23:00 +7°C° 0.3 mm 2 mps 750 mmHg 83%

    23 February, Friday

    Time Temperature Precipitation Wind Pressure Humidity
    00:00 +7°C° 0.3 mm 2 mps 750 mmHg 83%
    01:00 +7°C° 0.3 mm 2 mps 750 mmHg 83%
    02:00 +6°C° 0 mm 2 mps 750 mmHg 83%
    03:00 +6°C° 0 mm 2 mps 749 mmHg 82%
    04:00 +6°C° 0 mm 2 mps 749 mmHg 82%
    05:00 +6°C° 0 mm 2 mps 749 mmHg 80%
    06:00 +6°C° 0 mm 2 mps 749 mmHg 79%
    07:00 +6°C° 0 mm 2 mps 749 mmHg 77%
    08:00 +7°C° 0 mm 2 mps 749 mmHg 74%
    09:00 +8°C° 0 mm 2 mps 749 mmHg 71%
    10:00 +9°C° 0 mm 2 mps 749 mmHg 68%
    11:00 +10°C° 0.1 mm 2 mps 749 mmHg 64%
    12:00 +11°C° 0.1 mm 3 mps 749 mmHg 60%
    13:00 +12°C° 0.1 mm 3 mps 749 mmHg 57%
    14:00 +11°C° 0.1 mm 3 mps 749 mmHg 60%
    15:00 +11°C° 0.1 mm 3 mps 749 mmHg 63%
    16:00 +11°C° 0.1 mm 3 mps 749 mmHg 66%
    17:00 +10°C° 0 mm 3 mps 749 mmHg 69%
    18:00 +9°C° 0 mm 3 mps 750 mmHg 73%
    19:00 +8°C° 0 mm 3 mps 750 mmHg 76%
    20:00 +8°C° 0.1 mm 3 mps 751 mmHg 78%
    21:00 +8°C° 0.1 mm 3 mps 751 mmHg 80%
    22:00 +8°C° 0.1 mm 3 mps 752 mmHg 82%
    23:00 +7°C° 0.1 mm 3 mps 752 mmHg 82%

    24 February, Saturday

    Time Temperature Precipitation Wind Pressure Humidity
    00:00 +7°C° 0.1 mm 3 mps 753 mmHg 83%
    01:00 +7°C° 0.1 mm 3 mps 753 mmHg 84%
    02:00 +7°C° 0 mm 3 mps 753 mmHg 84%
    03:00 +5°C° 0 mm 3 mps 754 mmHg 85%
    04:00 +5°C° 0 mm 3 mps 754 mmHg 85%
    05:00 +5°C° 0 mm 3 mps 754 mmHg 84%
    06:00 +5°C° 0 mm 2 mps 755 mmHg 84%
    07:00 +5°C° 0 mm 2 mps 755 mmHg 83%
    08:00 +7°C° 0 mm 2 mps 756 mmHg 76%
    09:00 +10°C° 0 mm 1 mps 756 mmHg 69%
    10:00 +12°C° 0 mm 1 mps 757 mmHg 63%
    11:00 +13°C° 0 mm 1 mps 757 mmHg 59%
    12:00 +13°C° 0 mm 1 mps 757 mmHg 56%
    13:00 +14°C° 0 mm 2 mps 757 mmHg 52%
    14:00 +14°C° 0 mm 2 mps 757 mmHg 53%
    15:00 +14°C° 0 mm 2 mps 757 mmHg 54%
    16:00 +14°C° 0 mm 2 mps 757 mmHg 55%
    17:00 +12°C° 0 mm 1 mps 757 mmHg 60%
    18:00 +11°C° 0 mm 1 mps 757 mmHg 66%
    19:00 +9°C° 0 mm 1 mps 757 mmHg 72%
    20:00 +9°C° 0 mm 1 mps 757 mmHg 73%
    21:00 +9°C° 0 mm 1 mps 757 mmHg 75%
    22:00 +7°C° 0 mm 2 mps 757 mmHg 76%
    23:00 +7°C° 0 mm 2 mps 757 mmHg 77%
    Show more